Погода в Уберабе

Бразилия     19°45′58″S   47°55′34″W
темп.,
°C
ветер,
м/с
пор.,
м/с
влажн.,
%
обл.,
%
осадки,
мм/ч
давл.,
гПа
погр.,
м
26 февраля, пт
пт2600:00+20в2390100 0.7 101145
03:00+20вюв2492100 1.3 1009100
06:00+19св3591100 0.0 1010115
09:00+20св4888100 0.1 1012176
12:00+23ю1183100 0.9 1012247
15:00+23св4683100 1.3 1009327
18:00+23в238499 0.7 100962
21:00+19св389262 0.9 1011189
27 февраля, сб
сб2700:00+18св4108934 0.0 1012272
03:00+18св4118917 0.0 1011381
06:00+18св3119333 0.0 1012390
09:00+23св598530 0.9 1013714
12:00+25ссв56780 4.9 1012956
15:00+25с468216 13.9 1010899
18:00+21св51191100 5.6 1009546
21:00+20св51391100 5.8 1011532
28 февраля, вс
вс2800:00+19ссв4119240 0.0 1012456
03:00+19св4118667 0.0 1011567
06:00+19св4118394 0.0 1013516
09:00+20всв398789 0.0 1014681
12:00+25св697397 0.0 10131126
15:00+25св697570 2.3 10101214
18:00+22св388760 1.1 1009339
21:00+20св388980 1.3 1011240
1 марта, пн
пн100:00+20св3791100 0.6 1012226
03:00+18всв249278 0.6 101194
06:00+18всв399358 0.0 1012260
09:00+21св398979 0.0 1013617
12:00+25св477892 1.4 10121131
15:00+27ссв466987 3.3 10091396
18:00+24св358215 0.8 1009132
21:00+20св368831 0.9 1012108
2 марта, вт
вт200:00+19св349090 0.0 101398
03:00+18св389289 0.0 1012193
06:00+18св389196 0.0 1013221
09:00+23св588098 0.1 1015702
12:00+25ссв5880100 2.6 1014799
15:00+26св3578100 8.6 1011940
18:00+23вюв2388100 4.2 101084
21:00+21св3390100 7.6 101390